Weather History for Atlantic City, NJ

Change the Weather History Date:

Friday, May 31, 2013

  Actual Average Record
Temperature  
Mean Temperature 79 °F 66 °F  
Max Temperature 90 °F 76 °F 96 °F (1991)
Min Temperature 68 °F 56 °F 36 °F (1966)
Degree Days  
Heating Degree Days 0 3  
Month to date heating degree days 191 176  
Since 1 July heating degree days 4830 4878  
Cooling Degree Days 14 3  
Month to date cooling degree days 79 55  
Year to date cooling degree days 94 64  
Growing Degree Days 29 (Base 50)    
Moisture  
Dew Point 64 °F    
Average Humidity 63    
Maximum Humidity 87    
Minimum Humidity 38    
Precipitation  
Precipitation 0.00 in 0.12 in 1.38 in (1906)
Month to date precipitation 2.70 3.35  
Year to date precipitation 17.56 17.28  
Snow  
Snow 0.00 in 0.00 in 0.00 in (1903)
Month to date snowfall 0.0 0.0  
Since 1 July snowfall 14.6 16.5  
Snow Depth 0.00 in    
Sea Level Pressure  
Sea Level Pressure 30.12 in    
Wind  
Wind Speed 8 mph (SSW)    
Max Wind Speed 16 mph    
Max Gust Speed 22 mph    
Visibility 10 miles    
Events      
T = Trace of Precipitation, MM = Missing Value Source: NWS Daily Summary

Daily Weather History Graph

Daily Weather History Graph

Search for Another Location

Airport:

Trip Planner

Search our weather history database for the weather conditions in past years. The results will help you decide how hot, cold, wet, or windy it might be!

Date:

Astronomy

May. 31, 2013 Rise Set
Actual Time 5:33 AM EDT 8:18 PM EDT
Civil Twilight 5:01 AM EDT 8:50 PM EDT
Nautical Twilight 4:22 AM EDT 9:30 PM EDT
Astronomical Twilight 3:36 AM EDT 10:15 PM EDT
Moon 12:53 AM EDT (5/31) 12:44 PM EDT (5/31)
Length of Visible Light 15h 48m
Length of Day
14h 45m
Waning Gibbous, 51% of the Moon is Illuminated
May 31
Waning Gibbous
May 31
Last Quarter
Jun 8
New
Jun 16
First Quarter
Jun 23
Full

Hourly Weather History & Observations

Time (EDT) Temp. Heat Index Dew Point Humidity Pressure Visibility Wind Dir Wind Speed Gust Speed Precip Events Conditions
12:54 AM 70.0 °F - 64.9 °F 84% 30.14 in 10.0 mi SSW 4.6 mph - N/A   Clear
1:54 AM 69.1 °F - 64.0 °F 84% 30.14 in 9.0 mi SSW 3.5 mph - N/A   Clear
2:54 AM 69.1 °F - 64.9 °F 87% 30.14 in 10.0 mi South 3.5 mph - N/A   Clear
3:54 AM 68.0 °F - 64.0 °F 87% 30.14 in 10.0 mi SSW 4.6 mph - N/A   Clear
4:54 AM 69.1 °F - 64.9 °F 87% 30.14 in 10.0 mi SW 4.6 mph - N/A   Clear
5:54 AM 69.1 °F - 64.9 °F 87% 30.16 in 10.0 mi SW 5.8 mph - N/A   Clear
6:54 AM 71.1 °F - 66.0 °F 84% 30.17 in 10.0 mi SW 5.8 mph - N/A   Clear
7:54 AM 75.9 °F - 66.0 °F 71% 30.17 in 10.0 mi WSW 5.8 mph - N/A   Clear
8:54 AM 80.1 °F 81.9 °F 64.9 °F 60% 30.17 in 10.0 mi WSW 5.8 mph - N/A   Clear
9:54 AM 84.0 °F 85.8 °F 64.9 °F 53% 30.15 in 10.0 mi WSW 6.9 mph - N/A   Clear
10:54 AM 86.0 °F 86.8 °F 63.0 °F 46% 30.15 in 10.0 mi West 9.2 mph - N/A   Clear
11:54 AM 88.0 °F 89.6 °F 64.9 °F 46% 30.14 in 10.0 mi SW 9.2 mph - N/A   Clear
12:54 PM 88.0 °F 89.3 °F 64.0 °F 45% 30.13 in 10.0 mi SSW 11.5 mph - N/A   Clear
1:54 PM 89.1 °F 88.8 °F 60.1 °F 38% 30.11 in 10.0 mi SSW 11.5 mph - N/A   Clear
2:54 PM 87.1 °F 88.9 °F 64.9 °F 48% 30.10 in 10.0 mi South 11.5 mph - N/A   Clear
3:54 PM 86.0 °F 87.3 °F 64.0 °F 48% 30.09 in 10.0 mi South 12.7 mph - N/A   Clear
4:54 PM 86.0 °F 87.3 °F 64.0 °F 48% 30.07 in 10.0 mi South 11.5 mph - N/A   Clear
5:54 PM 84.9 °F 86.6 °F 64.9 °F 51% 30.06 in 10.0 mi South 10.4 mph - N/A   Clear
6:54 PM 84.0 °F 85.8 °F 64.9 °F 53% 30.06 in 10.0 mi South 11.5 mph - N/A   Clear
7:54 PM 80.1 °F 81.9 °F 64.9 °F 60% 30.06 in 10.0 mi South 9.2 mph - N/A   Clear
8:54 PM 75.0 °F - 64.0 °F 69% 30.06 in 10.0 mi SSW 8.1 mph - N/A   Clear
9:54 PM 73.0 °F - 64.0 °F 73% 30.07 in 10.0 mi South 5.8 mph - N/A   Clear
10:54 PM 72.0 °F - 64.0 °F 76% 30.08 in 10.0 mi SSW 6.9 mph - N/A   Clear
11:54 PM 71.1 °F - 63.0 °F 75% 30.08 in 10.0 mi SSW 6.9 mph - N/A   Clear